COSMOS 2491 DEB, 47110

Orbit data source: Space-Track

COSMOS 2491 DEB, 47110 is space debris in LEO originally from a launch on Wed, 25 Dec 2013 UTC launched from the Plesetsk Missile And Space Complex (PKMTR). Debris objects in space refer to the collection of defunct objects orbiting the Earth. Examples of debris include non-operational satellites, rocket bodies, and fragments generated from explosions, collisions, or faulty payload assembly.

Loading next visibility...
Identifier
47110, 2013-076AF
Orbit
LEO
Last TLE update
2 days ago
Origin
Manufacturer
TsNIIKhM
Mission
Spacecraft
Bus & Motor
Unknown
Mass
Unknown
Launch date (UTC)
2013-12-25 (12 years ago)
Launch vehicle
Unknown
Launch site
Plesetsk Missile And Space Complex (PKMTR)
Object type
Payload
Rocket body
Debris
Shape & HBR
Unknown
Radar Cross Section
Small (<0.1 m²)

Expand to show TLE details & history

TLE from 2 days ago
0 COSMOS 2491 DEB
1 47110U 13076AF  25186.80886059  .00001843  00000-0  10690-1 0  9999
2 47110  82.4476 357.7264 0113549 257.6040 101.2321 12.57329226248044
Epoch: 2025-07-05T19:24Z
TLE epoch observation values (Epoch: 2025-07-05T19:24:45.554Z)
Latitude
-0.00002°
Longitude
142.49501°
Altitude
1,454.954 km
Speed
7.126 km/s
True Right ascension
23h 50m 54s
True Declination
0° 00' 00"
Sunlit
Object was in daylight at epoch
Visualization orbit readout
Latitude
31.9919°
Longitude
145.631°
Altitude
1,505.634 km
Speed
7.084 km/s
Apparent Right ascension
02h 44m 34s
Apparent Declination
0° 40' 11"
Sunlit
Object is in daylight
Visualization observer readout
Local Sidereal Time
18:52:42
Azimuth
70.664° E
Elevation
-20.622°
Doppler factor
1
Orbital elements
Apogee altitude
1,519.996 km
Perigee altitude
1,342.644 km
Semi-major axis
7,809.457 km
Eccentricity
0.01135
Inclination
82.4476°
RAAN
357.7264°
Arg. of periapsis
257.604°
True anomaly
Unknown
Mean anomaly
101.2321°
Eccentric anomaly
Unknown
Mean motion
3.14494 °/min
Orbital period
114.47 mins
BSTAR
0.01069
Loading maneuver chart data...
Loading SW <> Apogee altitude chart data...
Loading historical data...
Loading historical data...
Loading historical data...
Loading historical data...
Loading historical data...
Loading historical data...
Loading historical data...

COSMOS 2491 DEB Visibility forecast

Observer location: undefined°, undefined°

Span
Click to sort rows by Start time (UTC) header in descending order
Start Az.
Max El. time (UTC)
Max El. Az.
Max El.
End time (UTC)
End Az.
14 mins2025-07-08 10:32:15.279Z136.095° SSE2025-07-08 10:39:15.279Z80.898° E25.608°2025-07-08 10:46:15.279Z28.307° NE
15 mins2025-07-08 12:27:15.279Z205.698° SW2025-07-08 12:34:15.279Z291.082° WNW41.207°2025-07-08 12:42:15.279Z0.829° NNE
15 mins2025-07-08 22:31:15.279Z1.23° NNE2025-07-08 22:38:15.279Z71.848° E41.116°2025-07-08 22:46:15.279Z156.915° SSE
11 mins2025-07-09 00:28:15.279Z321.914° NNW2025-07-09 00:33:15.279Z277.943° WNW25.058°2025-07-09 00:39:15.279Z227.639° WSW
|